North Adams, MA

10:12 PM EDT on May 29, 2017 (GMT -0400)
Harriman And West

Weather History for KAQW - July, 2013

Change the Weather History Date:

Thursday, July 18, 2013

  Actual Average Record
Temperature  
Mean Temperature 82 °F -  
Max Temperature 91 °F 77 °F 91 °F (2013)
Min Temperature 72 °F 55 °F 50 °F (2014)
Cooling Degree Days 16    
Growing Degree Days 32 (Base 50)    
Moisture  
Dew Point 69 °F    
Average Humidity 72    
Maximum Humidity 94    
Minimum Humidity 39    
Precipitation  
Precipitation 0.00 in - - ()
Sea Level Pressure  
Sea Level Pressure 30.01 in    
Wind  
Wind Speed 1 mph (ENE)    
Max Wind Speed 9 mph    
Max Gust Speed 17 mph    
Visibility 9 miles    
Events      
Averages and records for this station are not official NWS values.
T = Trace of Precipitation, MM = Missing Value Source: NWS Daily Summary

Daily Weather History Graph

Daily Weather History Graph

Search for Another Location

Airport or City:

Trip Planner

Search our weather history database for the weather conditions in past years. The results will help you decide how hot, cold, wet, or windy it might be!

Date:

Astronomy

Jul. 18, 2013 Rise Set
Actual Time 5:30 AM EDT 8:26 PM EDT
Civil Twilight 4:57 AM EDT 8:59 PM EDT
Nautical Twilight 4:14 AM EDT 9:42 PM EDT
Astronomical Twilight 3:24 AM EDT 10:31 PM EDT
Moon 4:19 PM EDT (7/18) 1:20 AM EDT (7/18)
Length of Visible Light 16h 02m
Length of Day
14h 55m
Waxing Gibbous, 77% of the Moon is Illuminated
Jul 18
Waxing Gibbous
Jul 22
Full
Jul 29
Last Quarter
Aug 6
New
Aug 14
First Quarter

Hourly Weather History & Observations

Time (EDT) Temp. Heat Index Dew Point Humidity Pressure Visibility Wind Dir Wind Speed Gust Speed Precip Events Conditions
12:52 AM 75.0 °F - 71.1 °F 87% 30.04 in 9.0 mi Calm Calm - N/A   Scattered Clouds
1:52 AM 73.9 °F - 70.0 °F 87% 30.03 in 8.0 mi SE 3.5 mph - N/A   Mostly Cloudy
2:52 AM 75.0 °F - 71.1 °F 87% 30.02 in 8.0 mi Calm Calm - N/A   Mostly Cloudy
3:52 AM 73.0 °F - 71.1 °F 93% 30.01 in 7.0 mi Calm Calm - N/A   Clear
4:28 AM 73.4 °F - 71.6 °F 94% 30.03 in 6.0 mi Calm Calm - N/A   Mostly Cloudy
4:52 AM 73.0 °F - 71.1 °F 93% 30.02 in 7.0 mi Calm Calm - N/A   Overcast
5:52 AM 72.0 °F - 70.0 °F 93% 30.03 in 4.0 mi North 3.5 mph - N/A   Mostly Cloudy
6:06 AM 73.4 °F - 71.6 °F 94% 30.05 in 4.0 mi Calm Calm - N/A   Scattered Clouds
6:52 AM 75.9 °F - 72.0 °F 87% 30.05 in 7.0 mi Calm Calm - N/A   Partly Cloudy
7:52 AM 80.1 °F 83.6 °F 71.1 °F 74% 30.05 in 8.0 mi Calm Calm - N/A   Clear
8:52 AM 82.0 °F 85.9 °F 70.0 °F 67% 30.06 in 9.0 mi Calm Calm - N/A   Clear
9:52 AM 84.0 °F 88.4 °F 70.0 °F 63% 30.05 in 10.0 mi Variable 3.5 mph - N/A   Clear
10:52 AM 86.0 °F 88.8 °F 66.9 °F 53% 30.04 in 10.0 mi Calm Calm - N/A   Partly Cloudy
11:52 AM 88.0 °F 90.7 °F 66.9 °F 49% 30.04 in 10.0 mi NNW 6.9 mph - N/A   Mostly Cloudy
2:52 PM 90.0 °F 91.7 °F 64.9 °F 43% 29.99 in 10.0 mi Variable 4.6 mph - N/A   Scattered Clouds
3:52 PM 91.0 °F 91.9 °F 63.0 °F 39% 29.98 in 10.0 mi Variable 5.8 mph 17.3 mph N/A   Partly Cloudy
4:52 PM 90.0 °F 90.6 °F 63.0 °F 40% 29.95 in 10.0 mi West 9.2 mph - N/A   Partly Cloudy
5:52 PM 88.0 °F 89.6 °F 64.9 °F 46% 29.95 in 10.0 mi Calm Calm - N/A   Clear
6:52 PM 84.0 °F 88.4 °F 70.0 °F 63% 29.98 in 10.0 mi Calm Calm - N/A   Clear
7:52 PM 82.0 °F 86.3 °F 71.1 °F 69% 29.97 in 10.0 mi Calm Calm - N/A   Clear
8:52 PM 78.1 °F - 72.0 °F 81% 29.97 in 10.0 mi Calm Calm - N/A   Partly Cloudy
9:52 PM 75.0 °F - 71.1 °F 87% 29.99 in 10.0 mi Calm Calm - N/A   Clear
10:52 PM 75.0 °F - 66.9 °F 76% 29.98 in 10.0 mi ESE 5.8 mph - N/A   Clear
11:52 PM 75.0 °F - 66.0 °F 73% 29.96 in 10.0 mi ESE 4.6 mph - N/A   Clear